www.pogodaiklimat.ru

Погода и климат >> Архив погоды >> Финляндия >> Аэропорт Ивало


ПОГОДА в Аэропорту Ивало

  • Прогноз погоды в Аэропорту Ивало
  • Монитор погоды в Аэропорту Ивало

АРХИВ ПОГОДЫ в Аэропорту Ивало

Время (UTC), дата Ветер
(напр.,м/с)
 
Видим.   Явления Облачность Т
(С)
Тd
(С)
f
(%)
Тe
(С)
Тes
(С)
Комфортность P
(гПа)
Po
(гПа)
Тmin
(С)
Tmax
(С)
R
(мм)
R24
(мм)
S
(см)
16 16.08 Ю 6 50 км 5/5 1000 м
[]
+15.9 +8.4 61 +15 +15 1008.0 990.5
17 16.08 Ю 4 45 км ясно +14.9 +8.3 65 +14 +14 1008.2 990.7
18 16.08 Ю 3 40 км 10/10 600 м
[]
+14.2 +8.7 69 +13 +13 1008.6 991.0 +11.2 +16.8
19 16.08 Ю 4 40 км 10/10 600 м
[]
+13.7 +8.8 72 +12 +12 1008.6 991.0
20 16.08 Ю 3 50 км 10/10 300 м
[]
+12.5 +8.6 77 +11 +11 1009.0 991.3
21 16.08 Ю 1 >70 км 6/1 300 м
[]
+12.0 +8.8 81 +12 +12 1008.6 990.9
22 16.08 Ю 3 50 км 5/1 1000 м
[]
+11.4 +8.8 84 +10 +10 1008.7 990.9
23 16.08 Ю 2 50 км 9/9 1000 м
[]
+11.0 +8.7 86 +10 +10 1008.5 990.7
00 17.08 Ю 3 >70 км 8/0 300 м
[]
+11.4 +9.2 86 +10 +10 1008.2 990.4
01 17.08 Ю 4 50 км 6/5 300 м
[]
+11.9 +9.8 87 +10 +10 1007.8 990.1
02 17.08 Ю 2 60 км в посл. час дождь 10/0 1500 м
[]
+12.0 +10.1 88 +11 +11 1007.5 989.8
03 17.08 Ю 3 >70 км в посл. час дождь 9/9 2000 м
[]
+12.1 +10.0 87 +10 +10 1007.1 989.5
04 17.08 Ю 5 50 км 9/1 300 м
[]
+12.4 +9.7 84 +10 +10 1007.0 989.4
05 17.08 Ю 4 50 км 10/10 300 м
[]
+12.5 +9.8 84 +11 +11 1007.4 989.7
06 17.08 Ю 7 50 км 10/10 300 м
[]
+12.6 +10.3 86 +10 +10 1007.4 989.8 +10.6 +14.2
07 17.08 Ю 6 35 км слаб. ливневой дождь 10/10 300 м
[]
+12.8 +10.9 88 +10 +10 1007.7 990.1
08 17.08 Ю 4 35 км слаб. ливневой дождь 9/9 300 м
[]
+13.4 +11.4 88 +12 +12 1007.7 990.1
09 17.08 Ю 4 60 км слаб. ливневой дождь 9/9 300 м
[]
+14.3 +11.8 85 +13 +13 1008.0 990.5
10 17.08 Ю 3 50 км 9/9 300 м
[]
+14.4 +11.9 85 +13 +14 1008.1 990.6
11 17.08 ЮЗ 4 50 км 9/9 300 м
[]
+14.7 +12.1 84 +13 +14 1008.5 990.9
12 17.08 Ю 4 60 км 9/9 300 м
[]
+15.0 +12.4 84 +14 +14 1008.5 991.0
13 17.08 Ю 3 50 км в посл. час дождь 10/10 600 м
[]
+15.4 +12.2 81 +15 +15 1008.5 991.0
14 17.08 Ю 6 50 км 9/4 300 м
[]
+16.5 +12.7 78 +15 +16 1008.2 990.8
15 17.08 Ю 4 65 км 9/6 300 м
[]
+16.4 +12.9 80 +16 +16 1008.1 990.7
16 17.08 Ю 4 50 км в посл. час дождь 10/10 300 м
[]
+15.1 +13.4 90 +14 +14 1008.3 990.8
17 17.08 Ю 2 50 км 9/9 600 м
[]
+15.5 +12.9 84 +15 +15 1008.3 990.8
18 17.08 Ю 2 50 км 10/10 1000 м
[]
+15.3 +12.7 84 +15 +15 1008.5 991.0 +12.6 +16.5
19 17.08 Ю 2 50 км 10/10 300 м
[]
+15.1 +12.8 86 +15 +15 1008.4 990.9
20 17.08 Ю 3 50 км 8/3
[]
+14.6 +12.2 86 +14 +14 1008.3 990.8
21 17.08 Ю 3 65 км 9/1 600 м
[]
+14.2 +12.1 87 +13 +13 1008.3 990.7
22 17.08 Ю 2 50 км 9/6 300 м
[]
+14.5 +12.4 87 +14 +14 1008.4 990.8
23 17.08 Ю 3 50 км 9/4 300 м
[]
+14.8 +12.6 87 +14 +14 1008.3 990.8
00 18.08 ЮЗ 3 60 км 9/3 1500 м
[]
+14.5 +12.8 90 +14 +14 1008.2 990.7
01 18.08 Ю 2 50 км 10/3
[]
+14.8 +12.8 88 +14 +14 1007.8 990.3
02 18.08 Ю 4 50 км 9/6 300 м
[]
+15.5 +13.1 86 +15 +15 1007.3 989.9
03 18.08 Ю 5 65 км в посл. час дождь 9/1 1500 м
[]
+15.3 +12.7 84 +14 +14 1007.6 990.2
04 18.08 Ю 5 50 км 10/10 300 м
[]
+15.3 +12.2 82 +14 +14 1007.6 990.1
05 18.08 Ю 4 50 км 9/6 600 м
[]
+15.6 +12.0 79 +15 +15 1007.6 990.1
06 18.08 Ю 5 50 км 9/9 600 м
[]
+16.0 +11.6 75 +15 +15 1007.4 990.0 +14.2 +16.0
07 18.08 Ю 7 50 км 9/4 600 м
[]
+16.5 +11.2 71 +15 +16 1007.3 989.9
08 18.08 Ю 9 60 км 9/3 1000 м
[]
+18.4 +11.2 63 +18 +18 1007.3 989.9
09 18.08 Ю 8 60 км 8/3 600 м
[]
+18.6 +11.0 61 +18 +19 1007.4 990.1
10 18.08 Ю 8 50 км 9/8 1000 м
[]
+19.0 +10.6 58 +19 +19 1007.4 990.1
11 18.08 Ю 9 50 км 10/1 1000 м
[]
+19.6 +11.1 58 +20 +20 1007.6 990.4
12 18.08 Ю 8 >70 км 6/0 1000 м
[]
+19.9 +10.8 56 +21 +21 комфорт 1007.5 990.3
13 18.08 Ю 8 >70 км 9/8 1000 м
[]
+20.2 +10.4 53 +21 +21 комфорт 1007.5 990.3
14 18.08 Ю 7 >70 км 9/0 2000 м
[]
+19.6 +10.2 55 +20 +20 1007.6 990.4
15 18.08 Ю 6 >70 км 4/4 2000 м
[]
+18.4 +12.0 66 +18 +19 1007.9 990.6
16 18.08 Ю 7 50 км 9/9 600 м
[]
+17.9 +12.5 71 +17 +17 1008.2 990.9
17 18.08 Ю 4 50 км слаб. ливневой дождь 10/10 1000 м
[]
+15.7 +13.6 87 +15 +15 1008.9 991.4
18 18.08 Ю 4 50 км 10/10
[]
+17.0 +12.1 73 +17 +17 1008.9 991.4 +15.7 +20.7
19 18.08 Ю 5 >70 км в посл. час дождь 10/0
[]
+16.4 +12.0 75 +15 +15 1008.9 991.5
20 18.08 Ю 4 50 км слаб. ливневой дождь 10/10 2000 м
[]
+15.8 +12.2 79 +15 +15 1009.0 991.5
21 18.08 Ю 3 >70 км 9/1 1500 м
[]
+15.4 +12.6 83 +15 +15 1009.2 991.7
22 18.08 Ю 3 50 км 10/1 1000 м
[]
+15.4 +12.4 82 +15 +15 1009.2 991.7
23 18.08 Ю 3 >70 км в посл. час дождь 10/1 1500 м
[]
+15.3 +12.2 82 +15 +15 1009.1 991.6
00 19.08 Ю 5 >70 км 4/1 600 м
[]
+15.2 +12.0 81 +14 +14 1008.9 991.4
01 19.08 Ю 4 >70 км 9/1 600 м
[]
+15.2 +12.1 82 +14 +14 1008.9 991.3
02 19.08 Ю 3 50 км 8/8
[]
+14.8 +11.9 83 +14 +14 1008.7 991.2
03 19.08 ЮВ 3 >70 км 4/1 1000 м
[]
+14.5 +11.6 83 +14 +14 1008.2 990.7
04 19.08 ЮВ 3 50 км 8/8
[]
+14.6 +11.7 83 +14 +14 1008.2 990.7
05 19.08 ЮВ 2 50 км 9/9
[]
+15.4 +10.4 72 +15 +15 1007.7 990.2
06 19.08 ЮВ 2 50 км 10/10
[]
+16.0 +8.8 62 +16 +16 1007.7 990.3 +14.2 +17.0
07 19.08 ЮВ 4 50 км 10/10
[]
+16.0 +8.8 62 +15 +15 1007.4 990.0
08 19.08 Ю 3 50 км 10/10 2000 м
[]
+17.8 +8.1 53 +18 +18 1006.8 989.5
09 19.08 Ю 4 65 км 9/0
[]
+20.0 +8.0 46 +21 +23 комфорт 1005.6 988.4
10 19.08 Ю 6 65 км 8/1 1500 м
[]
+20.1 +7.8 45 +21 +22 комфорт 1004.9 987.8
11 19.08 Ю 5 50 км 8/1 1500 м
[]
+19.9 +8.2 47 +21 +23 комфорт 1004.7 987.5
12 19.08 Ю 6 >70 км 9/4 1500 м
[]
+19.8 +7.9 46 +20 +21 1003.9 986.7
13 19.08 ЮВ 5 50 км 9/1 1500 м
[]
+19.5 +8.3 48 +20 +21 1003.5 986.3
14 19.08 Ю 7 50 км слаб. ливневой дождь 9/9
[]
+18.8 +8.3 50 +19 +19 1003.1 985.9
15 19.08 Ю 4 55 км слаб. ливневой дождь 10/0 1000 м
[]
+15.8 +10.9 73 +15 +16 1003.5 986.1
16 19.08 ЮВ 6 50 км слаб. ливневой дождь 10/10 1000 м
[]
+15.0 +11.3 79 +13 +13 1002.6 985.2
17 19.08 ЮВ 5 50 км слаб. ливневой дождь 10/10 600 м
[]
+14.9 +12.2 84 +13 +13 1001.8 984.4
18 19.08 Ю 4 30 км в посл. час дождь 10/10 300 м
[]
+14.7 +12.9 89 +13 +13 1001.4 983.9 +14.2 +20.2
19 19.08 Ю 5 50 км в посл. час дождь 10/10 300 м
[]
+15.3 +12.6 84 +14 +14 1001.1 983.7
20 19.08 Ю 4 >70 км в посл. час осадки 10/0 300 м
[]
+14.8 +13.1 90 +14 +14 1000.8 983.4
21 19.08 Ю 6 30 км слаб. ливневой дождь 10/10 300 м
[]
+14.9 +12.9 88 +13 +13 1000.9 983.5
22 19.08 Ю 7 50 км 9/9 300 м
[]
+14.8 +12.0 83 +13 +13 1000.9 983.5
23 19.08 Ю 7 50 км 9/9 600 м
[]
+14.4 +11.2 81 +12 +12 1001.2 983.8
00 20.08 Ю 6 >70 км 9/0 600 м
[]
+14.3 +10.8 79 +12 +12 1001.2 983.8
01 20.08 Ю 7 >70 км 9/0 300 м
[]
+14.1 +10.9 81 +12 +12 1001.5 984.1
02 20.08 Ю 5 50 км 9/9 300 м
[]
+14.2 +10.9 81 +12 +12 1001.9 984.5
03 20.08 Ю 6 >70 км 10/0 600 м
[]
+14.3 +11.0 81 +12 +12 1002.0 984.6
04 20.08 Ю 6 50 км 9/9 300 м
[]
+14.4 +11.2 81 +12 +12 1002.4 985.0
05 20.08 Ю 7 60 км 1/0 300 м
[]
+14.8 +11.2 79 +13 +13 1002.9 985.5
06 20.08 ЮЗ 7 50 км 1/1 600 м
[]
+15.6 +11.4 76 +14 +15 1003.4 986.0 +13.9 +15.6
07 20.08 ЮЗ 7 50 км 9/9 600 м
[]
+15.6 +11.5 77 +14 +14 1004.0 986.6
08 20.08 ЮЗ 6 50 км 5/5 600 м
[]
+16.2 +11.0 71 +15 +16 1004.3 986.9
09 20.08 Ю 8 60 км 9/6 600 м
[]
+17.3 +11.0 66 +16 +16 1004.7 987.4
10 20.08 ЮЗ 7 60 км 9/6 600 м
[]
+17.7 +10.7 64 +17 +17 1005.0 987.7
11 20.08 Ю 6 50 км 9/8 1000 м
[]
+17.1 +11.2 68 +16 +17 1005.6 988.3
12 20.08 Ю 4 >70 км 1/0 1500 м
[]
+18.7 +10.8 60 +19 +23 1005.9 988.6
13 20.08 Ю 5 35 км слаб. дождь 9/3 1000 м
[]
+17.3 +12.6 74 +17 +17 1006.1 988.8
14 20.08 ЮЗ 1 50 км в посл. час дождь 8/8 1000 м
[]
+15.5 +12.7 83 +16 +17 1006.7 989.2
15 20.08 ЮЗ 3 >70 км в посл. час дождь 9/8 1000 м
[]
+15.1 +10.0 72 +14 +15 1007.7 990.2
16 20.08 Ю 1 50 км 8/8
[]
+14.8 +10.1 73 +15 +16 1008.3 990.8
17 20.08 Ю 4 50 км 9/3 2000 м
[]
+14.5 +10.3 76 +13 +13 1008.6 991.0
18 20.08 ЮЗ 3 50 км 9/9
[]
+13.9 +10.2 78 +13 +13 1009.3 991.7 +13.9 +18.7
19 20.08 З 3 50 км 4/1 600 м
[]
+12.9 +10.4 85 +11 +11 1009.6 991.9
20 20.08 ЮЗ 2 50 км 9/9 2000 м
[]
+12.7 +10.7 88 +12 +12 1010.0 992.3
21 20.08 ЮЗ 2 >70 км 10/10 2000 м
[]
+12.9 +10.5 85 +12 +12 1010.5 992.8
22 20.08 Ю 3 50 км 10/10 2000 м
[]
+12.9 +10.0 83 +12 +12 1010.5 992.8
23 20.08 ЮЗ 2 50 км 9/9 2000 м
[]
+12.0 +10.0 88 +11 +11 1010.7 993.0
00 21.08 штиль 0 65 км 4/1 2000 м
[]
+10.3 +9.3 94 +9 +9 1011.2 993.3
01 21.08 ЮЗ 1 30 км 8/8 300 м
[]
+10.2 +9.5 95 +10 +10 1011.8 993.9
02 21.08 З 1 50 км 10/0 300 м
[]
+10.7 +10.0 95 +10 +10 1012.0 994.2
03 21.08 ЮЗ 2 60 км 10/0 300 м
[]
+11.6 +10.6 94 +10 +10 1012.3 994.5
04 21.08 ЮЗ 2 50 км 9/9 300 м
[]
+12.2 +11.1 93 +11 +11 1012.3 994.5
05 21.08 З 1 50 км 10/10 300 м
[]
+12.9 +11.5 91 +13 +13 1012.5 994.8
06 21.08 ЮЗ 3 50 км 10/10 300 м
[]
+14.2 +11.7 85 +13 +13 1012.5 994.9 +10.0 +14.2
07 21.08 ЮЗ 6 50 км 10/10 300 м
[]
+14.9 +10.9 77 +13 +13 1012.6 995.0
08 21.08 ЮЗ 4 50 км 10/10 300 м
[]
+14.9 +11.1 78 +14 +14 1012.8 995.2
09 21.08 ЮЗ 5 60 км 10/0 600 м
[]
+16.2 +10.9 71 +15 +17 1012.9 995.4
10 21.08 ЮЗ 4 50 км 9/9 600 м
[]
+15.8 +11.0 73 +15 +15 1013.0 995.5
11 21.08 ЮЗ 4 50 км 8/8 600 м
[]
+15.9 +11.2 74 +15 +16 1012.8 995.3
12 21.08 ЮЗ 4 >70 км в посл. час дождь 10/6 600 м
[]
+15.4 +11.8 79 +14 +15 1013.5 995.9
13 21.08 ЮЗ 4 50 км 9/4 600 м
[]
+15.4 +10.7 74 +14 +15 1013.2 995.7
14 21.08 Ю 3 50 км 3/0
[]
+16.0 +10.6 70 +16 +18 1013.0 995.4
15 21.08 ЮЗ 4 >70 км 1/1 600 м
[]
+16.1 +9.4 64 +15 +16 1012.9 995.4
16 21.08 Ю 3 50 км 1/1 600 м
[]
+16.1 +10.3 68 +16 +16 1012.8 995.2
17 21.08 Ю 3 50 км 4/4 600 м
[]
+15.3 +10.6 74 +15 +15 1013.0 995.4
18 21.08 Ю 2 50 км 3/3 600 м
[]
+14.5 +11.1 80 +14 +14 1013.1 995.5 +14.2 +16.4
19 21.08 ЮВ 2 50 км ясно +13.2 +10.8 85 +12 +12 1012.9 995.2
20 21.08 ЮЗ 3 40 км слаб. дождь 9/8 300 м
[]
+11.5 +10.8 95 +10 +10 1013.4 995.6
21 21.08 ЮВ 1 50 км слаб. ливневой дождь 10/0 2000 м
[]
+11.9 +11.4 97 +12 +12 1012.8 995.0
22 21.08 Ю 1 900 м туман ясно +10.6 +9.9 95 +10 +10 1013.1 995.2
23 21.08 ЮЗ 2 60 км ясно +10.1 +9.6 97 +8 +8 1013.2 995.3
00 22.08 ЮЗ 1 8000 м дымка ясно +8.7 +8.6 99 +8 +8 1013.4 995.4
01 22.08 ЮЗ 1 7000 м дымка ясно +9.0 +8.9 99 +8 +8 1013.2 995.2
02 22.08 З 2 35 км 10/10 100 м
[]
+9.0 +8.9 99 +7 +7 1013.2 995.2
03 22.08 ЮЗ 2 23 км 10/0 50 м
[]
+10.0 +9.8 99 +8 +8 1013.3 995.4
04 22.08 ЮЗ 3 45 км 10/10 50 м
[]
+10.0 +9.8 99 +8 +8 1013.3 995.4
05 22.08 ЮЗ 3 50 км 9/0 50 м
[]
+10.4 +10.1 98 +8 +8 1013.2 995.4
06 22.08 ЮЗ 4 50 км 9/9 100 м
[]
+10.9 +10.0 94 +8 +9 1013.4 995.6 +7.5 +14.5
07 22.08 ЮЗ 3 50 км 10/10 200 м
[]
+11.3 +9.9 91 +9 +9 1013.6 995.8
08 22.08 ЮЗ 4 50 км 10/10 200 м
[]
+11.6 +9.5 87 +9 +9 1013.7 995.9
09 22.08 ЮЗ 4 >70 км 9/0 300 м
[]
+13.4 +9.8 79 +12 +14 1013.8 996.1
10 22.08 ЮЗ 2 65 км 9/0 1500 м
[]
+14.2 +10.0 76 +14 +14 1013.7 996.0
11 22.08 Ю 1 50 км 9/4 600 м
[]
+15.5 +10.3 71 +16 +19 1013.4 995.8
12 22.08 С 4 >70 км слаб. дождь 9/9 600 м
[]
+15.1 +11.0 76 +14 +14 1013.3 995.7
13 22.08 СЗ 5 21 км сильн. ливневой дождь 9/9 600 м
[]
+13.5 +8.9 74 +12 +12 1013.9 996.2
14 22.08 З 2 50 км слаб. ливневой дождь 9/1 1000 м
[]
+12.0 +10.5 91 +11 +12 1014.4 996.6
15 22.08 С 3 >70 км 9/3 300 м
[]
+13.9 +11.3 84 +13 +13 1014.3 996.7
16 22.08 С 2 50 км ливневой дождь 10/10 1000 м
[]
+12.8 +10.6 86 +12 +12 1014.9 997.1
17 22.08 С 1 50 км 9/9 1500 м
[]
+13.4 +10.9 85 +14 +14 1015.0 997.2
18 22.08 С 2 50 км в посл. час дождь 9/9 1500 м
[]
+11.5 +10.1 91 +10 +10 1015.8 997.9 +10.9 +16.7
19 22.08 С 1 >70 км 10/0 2000 м
[]
+11.3 +9.8 90 +11 +11 1016.2 998.3
20 22.08 С 2 50 км 10/8 600 м
[]
+10.9 +10.0 94 +9 +9 1016.6 998.7
21 22.08 С 3 >70 км в посл. час осадки 9/0 600 м
[]
+10.5 +8.7 89 +8 +8 1017.0 999.1
22 22.08 СЗ 1 50 км 9/9 600 м
[]
+10.1 +7.0 81 +10 +10 1017.0 999.1
23 22.08 штиль 0 50 км ясно +8.5 +6.1 85 +8 +8 1017.2 999.1
00 23.08 штиль 0 600 м туман ясно +5.9 +5.6 98 +5 +5 1017.8 999.5
01 23.08 штиль 0 100 м туман ясно +4.9 +4.7 99 +4 +4 1018.0 999.7
02 23.08 ЮЗ 1 100 м туман ?/? +4.1 +4.1 100 +2 +2 1018.1 999.7
03 23.08 ЮЗ 2 200 м туман ?/? +2.6 +2.6 100 -1 -1 1018.3 999.9
04 23.08 ЮЗ 1 200 м туман ?/? +2.9 +2.9 100 +1 +1 1018.2 999.7
05 23.08 ЮЗ 1 800 м туман ?/? +3.8 +3.8 100 +2 +2 1018.1 999.7
06 23.08 штиль 0 300 м туман 10/10 50 м
[]
+6.1 +5.8 98 +5 +5 1018.0 999.8 +2.6 +11.5
07 23.08 СВ 1 50 км в посл. час туман ясно +7.5 +5.9 90 +7 +11 1018.0 999.8
08 23.08 СВ 1 50 км ясно +9.0 +6.1 82 +8 +14 1017.6 999.6
09 23.08 СВ 2 65 км ясно +11.1 +5.9 70 +10 +16 1017.2 999.2
10 23.08 СВ 3 >70 км ясно +12.3 +6.1 66 +11 +16 1016.8 999.0
11 23.08 СВ 3 50 км ясно +12.8 +6.3 65 +12 +16 1016.5 998.7
12 23.08 С 4 >70 км ясно +14.0 +6.4 60 +13 +16 1016.1 998.4
13 23.08 СВ 4 50 км ясно +14.7 +6.4 57 +14 +16 1015.6 998.0
14 23.08 СВ 5 50 км ясно +15.1 +6.8 58 +14 +15 1015.3 997.6
15 23.08 СВ 5 >70 км ясно +15.1 +7.0 58 +14 +15 1014.9 997.3

 

Местоположение метеостанции Аэропорт Ивало (Финляндия): широта 68.61 долгота 27.41 высота над уровнем моря 147 м.

В архиве по умолчанию представлена погода в Аэропорту Ивало за последнюю неделю. Архивные данные за месяц целиком и за предыдущие месяцы, начиная с января 2011 года, Вы можете получить, выбрав интересующий диапазон дат из раскрывающегося списка и нажав кнопку "Ввод!".


*Определитесь, кто Вы:
робот инопланетянин человек

Внимание! Время в таблицах - всемирное. Для получения местного времени необходимо прибавить поправку, которая равна 1 ч.

Смотрите также архив погоды в соседних городах и на ближайших метеорологических станциях:

Погода в Саариселькя (Финляндия) (20 км)
Погода в Саариселькя (Финляндия) (21 км)
Погода в Инари Раджайосеппи (Финляндия) (39 км)
Погода в Неллиме (Финляндия) (45 км)
Погода на Острове Сеиталасса (Финляндия) (51 км)
Погода в Кааманене (Финляндия) (59 км)
Погода в Соданкила Вуотсо (Финляндия) (60 км)
Погода в Верховье Лотты (Мурманская область, Россия) (62 км)
Погода в Янискоски (Мурманская область, Россия) (68 км)
Погода в Инари Анджели (Финляндия) (75 км)

Пояснения к столбцам:

Ветер - указаны скорость ветра в м/с - средняя за 10 мин, порывы в срок и между сроками (в фигурных скобках) и направление, откуда дует ветер: С - северный, СВ - северо-восточный, В - восточный, ЮВ - юго-восточный, Ю - южный, ЮЗ - юго-западный, З - западный, СЗ - северо-западный.
Видимость - горизонтальная дальность видимости в метрах или километрах. При видимости от 1 до 10 км при отсутствии осадков обычно наблюдается дымка, при ухудшении видимости до 1 км и менее - туман. В сухую погоду видимость может ухудшаться дымом, пылью или мглою.
Явления - указаны атмосферные явления, наблюдавшиеся в срок или в последний час перед сроком; фигурными скобками обозначены явления, наблюдавшиеся между сроками (за 1-3 часа до срока); квадратными скобками обозначены град или гололедные отложения с указанием их диаметра в мм.
Облачность - указаны через наклонную черту общая и нижняя облачность в баллах и высота нижней границы облаков в метрах; квадратными скобками обозначены формы облаков: Ci - перистые, Cs - перисто-слоистые, Cc - перисто-кучевые, Ac - высококучевые, As - высокослоистые, Sc - слоисто-кучевые, Ns - слоисто-дождевые, Cu - кучевые, Cb - кучево-дождевые. Подробнее классификацию облаков см. в Атласе облаков (PDF).
T - Температура воздуха - температура, измеренная на высоте 2 м над землей.
Td - Температура точки росы - температура, при понижении до которой содержащийся в воздухе водяной пар достигнет насыщения.
f - Относительная влажность воздуха - влажноcть воздуха, измеренная на высоте 2 м над землей.
Te - Эффективная температура - температура, которую ощущает одетый по сезону человек в тени. Характеристика душности погоды. При расчете учитывается влияние влажности воздуха и скорости ветра на теплоощущения человека.
Tes - Эффективная температура на солнце - температура, которую ощущает человек, с поправкой на солнечный нагрев. Характеристика знойности погоды. Зависит от высоты солнца над горизонтом, облачности и скорости ветра. Ночью, в пасмурную погоду, а также при ветре 12 м/с и более поправка равна нулю.
P - Атмосферное давление - приведенное к уровню моря атмосферное давление.
Po - Атмосферное давление - измеренное на уровне метеостанции атмосферное давление.
Tmin - Минимальная температура - минимум температуры воздуха на высоте 2 м над землей.
Tmax - Максимальная температура - максимум температуры воздуха на высоте 2 м над землей.
R - Количество осадков - Количество выпавших осадков за период времени, мм. При наведении курсора мыши на число - период времени, за который выпало указанное количество осадков.
R24 - Количество осадков - Количество выпавших осадков за 24 часа, мм.
S - Снежный покров - Высота снежного покрова, см. При наведении курсора мыши на число - состояние снежного покрова и степень покрытия местности в баллах.